Date String (YYYY-MM-DD hh:mm:ss) UTC,Instrument flags,absolute air pressure of the measurement (hPa),sample flow rate (lpm),inlet stack bypass flow (lpm),air temperature of the measurement (°C),ambient temperature measured by the external sensor (°C),aerosol sample conditioner tube jacket temperature (°C),OPC LED temperature (°C),internal box temperature (°C),relative humidity of the measurement (%),span deviation,mass concentration of particles derived from Lorenz-Mie calculation of OPC scattering (μg/m³),mass concentration of particles derived from Lorenz-Mie calculation of OPC scattering (μg/m³),mass concentration of particles derived from Lorenz-Mie calculation of OPC scattering (μg/m³)
DateTimeUTC,F1_M11,P_M11,Q1_M11,Q2_M11,T1_M11,T2_M11,T3_M11,T4_M11,T5_M11,U1_M11,ZSPAN_M11,X0_M11,X2_M11,X1_M11
2023-07-28 11:00:00,SystemResetWarning,0834.9,5.01,000.00,029.4,027.4,000.0,037.9,030.9,24.6,0000.0,0007.92,0003.60,0002.95
2023-07-28 11:01:00,SystemResetWarning,0834.9,5.00,000.00,029.4,027.6,000.0,037.9,030.9,24.3,0000.0,0007.83,0003.58,0002.94
2023-07-28 11:02:00,SystemResetWarning,0834.7,5.00,000.00,029.4,027.8,000.0,037.9,031.0,24.2,0000.0,0007.86,0003.56,0002.92
2023-07-28 11:03:00,SystemResetWarning,0834.7,5.00,000.00,029.4,027.9,000.0,037.9,031.0,24.3,0000.0,0007.66,0003.51,0002.90
2023-07-28 11:04:00,SystemResetWarning,0834.7,5.00,000.00,029.4,028.0,000.0,037.9,031.0,24.3,0000.0,0007.49,0003.49,0002.89
2023-07-28 11:05:00,SystemResetWarning,0834.9,4.99,000.00,029.5,028.1,000.0,037.9,031.1,24.3,0000.0,0007.55,0003.51,0002.90
2023-07-28 11:06:00,SystemResetWarning,0835.1,4.99,000.00,029.5,028.2,000.0,037.9,031.1,24.1,0000.0,0006.83,0003.50,0002.90
2023-07-28 11:07:00,SystemResetWarning,0834.7,5.00,000.00,029.5,028.2,000.0,038.0,031.1,23.9,0000.0,0006.11,0003.51,0002.89
2023-07-28 11:08:00,SystemResetWarning,0834.6,5.01,000.00,029.5,028.3,000.0,038.0,031.2,24.0,0000.0,0006.72,0003.53,0002.91
2023-07-28 11:09:00,SystemResetWarning,0834.6,5.01,000.00,029.6,028.4,000.0,038.0,031.2,23.9,0000.0,0006.73,0003.54,0002.91
2023-07-28 11:10:00,SystemResetWarning,0834.7,5.01,000.00,029.6,028.4,000.0,038.0,031.2,23.8,0000.0,0006.90,0003.58,0002.92
2023-07-28 11:11:00,SystemResetWarning,0835.0,5.00,000.00,029.6,028.5,000.0,038.0,031.3,23.7,0000.0,0007.22,0003.60,0002.92
2023-07-28 11:12:00,SystemResetWarning,0835.0,5.00,000.00,029.7,028.5,000.0,038.1,031.3,23.7,0000.0,0007.41,0003.64,0002.92
2023-07-28 11:13:00,SystemResetWarning,0834.5,5.00,000.00,029.7,028.6,000.0,038.1,031.3,23.9,0000.0,0007.41,0003.65,0002.94
2023-07-28 11:14:00,SystemResetWarning,0834.4,4.98,000.00,029.7,027.8,000.0,038.0,031.3,24.1,0000.0,0007.79,0003.66,0002.94
2023-07-28 11:15:00,SystemResetWarning,0834.4,5.00,000.00,029.7,025.9,000.0,037.9,031.1,24.9,0000.0,0007.98,0003.66,0002.94
2023-07-28 11:16:00,SystemResetWarning,0834.4,5.01,000.00,029.6,025.3,000.0,037.8,030.8,25.7,0000.0,0008.18,0003.67,0002.94
2023-07-28 11:17:00,SystemResetWarning,0834.3,5.01,000.00,029.4,025.5,000.0,037.9,030.6,26.2,0000.0,0008.17,0003.65,0002.93
2023-07-28 11:18:00,SystemResetWarning,0834.3,4.99,000.00,029.4,025.9,000.0,037.9,030.7,26.5,0000.0,0008.07,0003.63,0002.94
2023-07-28 11:19:00,SystemResetWarning,0834.1,5.00,000.00,029.4,026.3,000.0,037.9,030.7,26.4,0000.0,0007.72,0003.61,0002.94
2023-07-28 11:20:00,SystemResetWarning,0834.0,5.01,000.00,029.4,026.7,000.0,037.9,030.8,26.1,0000.0,0007.79,0003.62,0002.94
2023-07-28 11:21:00,SystemResetWarning,0834.0,5.00,000.00,029.4,027.0,000.0,037.9,030.8,26.1,0000.0,0007.71,0003.59,0002.94
2023-07-28 11:22:00,SystemResetWarning,0834.0,5.00,000.00,029.4,027.3,000.0,037.9,030.9,26.5,0000.0,0007.57,0003.56,0002.93
2023-07-28 11:23:00,SystemResetWarning,0834.0,4.99,000.00,029.4,027.5,000.0,037.9,030.9,27.2,0000.0,0007.53,0003.52,0002.91
2023-07-28 11:24:00,SystemResetWarning,0834.1,4.99,000.00,029.4,027.7,000.0,037.9,031.0,27.5,0000.0,0007.92,0003.48,0002.88
2023-07-28 11:25:00,SystemResetWarning,0834.1,5.00,000.00,029.4,027.8,000.0,037.9,031.0,28.1,0000.0,0007.52,0003.45,0002.87
2023-07-28 11:26:00,SystemResetWarning,0834.2,5.01,000.00,029.4,028.0,000.0,037.9,031.1,28.9,0000.0,0007.20,0003.42,0002.86
2023-07-28 11:27:00,SystemResetWarning,0834.4,5.01,000.00,029.5,028.1,000.0,037.9,031.1,29.2,0000.0,0007.07,0003.42,0002.84
2023-07-28 11:28:00,SystemResetWarning,0834.5,5.00,000.00,029.5,028.2,000.0,038.0,031.1,28.8,0000.0,0006.82,0003.39,0002.83
2023-07-28 11:29:00,SystemResetWarning,0834.3,5.00,000.00,029.5,028.3,000.0,038.0,031.2,29.0,0000.0,0006.86,0003.39,0002.81
2023-07-28 11:30:00,SystemResetWarning,0834.4,5.00,000.00,029.6,028.3,000.0,038.0,031.2,29.3,0000.0,0006.74,0003.36,0002.80
2023-07-28 11:31:00,SystemResetWarning,0834.2,5.00,000.00,029.6,028.4,000.0,038.0,031.2,29.6,0000.0,0006.48,0003.34,0002.81
2023-07-28 11:32:00,SystemResetWarning,0834.2,5.00,000.00,029.6,028.4,000.0,038.0,031.2,29.8,0000.0,0006.39,0003.33,0002.81
2023-07-28 11:33:00,SystemResetWarning,0834.2,4.99,000.00,029.6,028.5,000.0,038.0,031.3,29.0,0000.0,0006.44,0003.34,0002.82
2023-07-28 11:34:00,SystemResetWarning,0834.3,5.00,000.00,029.7,028.5,000.0,038.0,031.3,28.8,0000.0,0006.57,0003.38,0002.84
2023-07-28 11:35:00,SystemResetWarning,0834.4,4.99,000.00,029.7,028.5,000.0,038.1,031.3,29.1,0000.0,0005.61,0003.39,0002.87
2023-07-28 11:36:00,SystemResetWarning,0834.3,5.00,000.00,029.7,028.6,000.0,038.1,031.3,28.3,0000.0,0005.67,0003.41,0002.88
2023-07-28 11:37:00,SystemResetWarning,0834.3,4.99,000.00,029.7,028.6,000.0,038.1,031.4,27.2,0000.0,0005.71,0003.42,0002.88
2023-07-28 11:38:00,SystemResetWarning,0834.5,4.99,000.00,029.8,028.5,000.0,038.1,031.4,28.1,0000.0,0005.51,0003.41,0002.88
2023-07-28 11:39:00,SystemResetWarning,0834.4,5.00,000.00,029.7,026.9,000.0,038.0,031.2,27.5,0000.0,0005.72,0003.45,0002.90
2023-07-28 11:40:00,SystemResetWarning,0834.2,5.00,000.00,029.7,025.6,000.0,037.9,031.0,27.4,0000.0,0005.84,0003.43,0002.91
2023-07-28 11:41:00,SystemResetWarning,0834.2,5.01,000.00,029.6,025.5,000.0,037.9,030.7,28.0,0000.0,0006.67,0003.44,0002.92
2023-07-28 11:42:00,SystemResetWarning,0834.3,5.01,000.00,029.4,025.8,000.0,037.9,030.6,29.6,0000.0,0006.64,0003.43,0002.92
2023-07-28 11:43:00,SystemResetWarning,0834.5,5.00,000.00,029.4,026.2,000.0,037.9,030.7,29.1,0000.0,0007.28,0003.43,0002.93
2023-07-28 11:44:00,SystemResetWarning,0834.3,5.01,000.00,029.4,026.5,000.0,037.9,030.8,28.4,0000.0,0007.39,0003.43,0002.94
2023-07-28 11:45:00,SystemResetWarning,0834.4,5.00,000.00,029.4,026.9,000.0,037.9,030.8,28.7,0000.0,0007.37,0003.44,0002.96
2023-07-28 11:46:00,SystemResetWarning,0834.5,5.00,000.00,029.4,027.2,000.0,037.9,030.9,28.7,0000.0,0007.44,0003.47,0002.97
2023-07-28 11:47:00,SystemResetWarning,0834.4,5.00,000.00,029.4,027.4,000.0,037.9,030.9,28.3,0000.0,0007.56,0003.51,0003.00
2023-07-28 11:48:00,SystemResetWarning,0834.5,5.00,000.00,029.4,027.6,000.0,037.9,031.0,29.7,0000.0,0007.66,0003.56,0003.03
2023-07-28 11:49:00,SystemResetWarning,0834.8,5.00,000.00,029.4,027.8,000.0,038.0,031.0,30.5,0000.0,0007.77,0003.60,0003.06
2023-07-28 11:50:00,SystemResetWarning,0834.9,5.00,000.00,029.5,027.9,000.0,038.0,031.1,30.6,0000.0,0007.78,0003.61,0003.08
2023-07-28 11:51:00,SystemResetWarning,0834.7,4.99,000.00,029.5,028.0,000.0,038.0,031.1,30.9,0000.0,0007.84,0003.67,0003.11
2023-07-28 11:52:00,SystemResetWarning,0834.9,5.00,000.00,029.5,028.1,000.0,038.0,031.1,30.2,0000.0,0007.54,0003.74,0003.12
2023-07-28 11:53:00,SystemResetWarning,0834.7,5.00,000.00,029.5,028.2,000.0,038.0,031.1,29.1,0000.0,0007.84,0003.78,0003.13
2023-07-28 11:54:00,SystemResetWarning,0834.9,5.00,000.00,029.5,028.2,000.0,038.0,031.1,27.9,0000.0,0007.55,0003.81,0003.14
2023-07-28 11:55:00,SystemResetWarning,0834.6,5.01,000.00,029.6,028.3,000.0,038.0,031.2,27.7,0000.0,0007.88,0003.82,0003.14
2023-07-28 11:56:00,SystemResetWarning,0834.6,5.01,000.00,029.6,028.3,000.0,038.0,031.2,27.1,0000.0,0008.72,0003.81,0003.14
2023-07-28 11:57:00,SystemResetWarning,0834.6,4.98,000.00,029.6,028.4,000.0,038.0,031.2,26.5,0000.0,0008.67,0003.80,0003.14
2023-07-28 11:58:00,SystemResetWarning,0834.6,4.99,000.00,029.6,028.4,000.0,038.0,031.3,26.2,0000.0,0008.56,0003.78,0003.14
2023-07-28 11:59:00,SystemResetWarning,0834.7,5.01,000.00,029.7,028.5,000.0,038.1,031.3,26.5,0000.0,0008.46,0003.74,0003.14
